Aviador C. Campos Airport

Jump to: basic info | weather | frequencies | runways | comments

Related pages: nearby airports | nearby navaids | notams | map

Basic information (top)

Codes: CPC SAZY CHP
Location: lon -40.075401, lat -71.137299, elev 2,569 ft / 783 m msl
Status: medium_airport

Weather (top)

Current conditions (rec'd 2015/04/15 13:15Z):

SAZY 151315Z 09012KT 50008000SW 4000NW -RA SCT012 SCT025 09/04 Q1019

Airport forecast (rec'd 2015/02/16 06:27Z):

TAF SAZY 160500Z 1606/1706 25015KT CAVOK TX28/1618Z TN11/1610Z 
      BECMG 1612/1614 27005KT

Frequencies (top)

Verify before use: may be inaccurate or out of date.

GND: 121.7 MHz (GND)
TWR: 119.6 MHz (CHAPELCO TWR)

Runways (top)

6/24: 8,202 x 148 ft (2,500 x 45 m) — paved — not lighted

Latest comments (top)

No comments yet for Aviador C. Campos Airport

More... (top)

See also NOTAMs and nearby airports and navaids, or visit the Aviador C. Campos Airport page at the main OurAirports website..